Preview of NWS' New Version of Forecast
This preview is not operational and should not be used for support decisions.
Latest weather observations around

Hagerstown, Washington County Regional Airport (KHGR)

Using International System of Units (Switch to English Units)
Date/ Time (EDT) Wind (kph) Vis. (km) Weather Sky Cond. Temp (°C) Rel. Humidity Wind Chill (°C) Heat Index (°C) Pressure Precip. (cm)
Air Dwpt 6 hour Altimeter (hPa) Sea level (hPa) 1 hr 3 hr 6 hr
Max Min
Aug 25 13:53 ENE 18 16.09 Mostly Clear FEW065 25 11     42%   25 1023 1023.7      
Aug 25 12:53 NE 17 16.09 Mostly Cloudy BKN065 24 11     43%   23 1023.7 1024.3      
Aug 25 11:53 11 16.09 Partly Cloudy SCT045 22 11     48%   22 1024.4 1024.9      
Aug 25 10:53 E 18 16.09 Clear CLR 22 11     51%   21 1024.4 1025      
Aug 25 09:53 ENE 9 16.09 Clear CLR 21 13     59%     1024.4 1025.2      
Aug 25 08:53 9 16.09 Clear CLR 19 12     61%     1024.7 1025.4      
Aug 25 07:53 N 15 16.09 Clear CLR 17 11     67%     1024.7 1025.5      
Aug 25 06:53 N 13 16.09 Mostly Clear FEW070 16 11     75%     1024.1 1024.6      
Aug 25 05:53 N 9 16.09 Cloudy OVC070 16 11     72%     1023.4 1024      
Aug 25 04:53 NNW 9 16.09 Cloudy OVC070 16 11     72%     1023 1023.8      
Aug 25 03:53 W 9 16.09 Cloudy OVC070 16 12     78%     1023 1023.7      
Aug 25 02:53 NW 8 16.09 Cloudy OVC070 16 12     78%     1023.4 1023.8      
Aug 25 01:53 NNW 11 16.09 Cloudy OVC075 16 12     75%     1023.7 1024.1      
Aug 25 00:53 W 5 16.09 Partly Cloudy SCT075 16 12     80%     1024.1 1024.6      
Aug 24 23:53 N 5 16.09 Mostly Clear FEW075 17 12     75%     1024.1 1024.5      
Aug 24 22:53 WNW 5 16.09 Mostly Cloudy BKN075 17 12     72%     1024.1 1024.7      
Aug 24 21:53 ENE 5 16.09 Cloudy OVC075 18 12     65%     1023.7 1024.4      
Aug 24 20:53 NE 11 16.09 Mostly Clear FEW075 20 11     55%     1023.4 1023.9      
Aug 24 19:53 N 11 16.09 Clear CLR 21 9     49%     1022.7 1023.5      
Aug 24 18:53 NE 9 16.09 Mostly Clear FEW050 22 10     47%   21 1022.4 1023      
Aug 24 17:53 NE 13 16.09 Partly Cloudy SCT080 23 9     41%   22 1022.4 1022.8      
Aug 24 16:53 NNE 15 16.09 Cloudy OVC080 23 9     41%   22 1022.4 1023      
Aug 24 15:53 NNE 17 16.09 Cloudy FEW055 OVC075 23 9     40%   23 1022.4 1022.9      
Aug 24 14:53 NNE 18 16.09 Mostly Cloudy BKN060 BKN070 23 8     39%   22 1022.4 1023.1      
Aug 24 13:53 ENE 13 16.09 Mostly Clear FEW070 24 8     36%   24 1022.7 1023.2      
Aug 24 12:58 NE 13 16.09 Clear CLR 24 8     36%   23 1023        
Aug 24 12:53   16.09 Partly Cloudy SCT065 23 7     36%   23 1023 1023.5      
Aug 24 11:53 N 8 16.09 Clear CLR 24 8     37%   23 1023.4 1023.8      
Aug 24 10:53 NE 13 16.09 Clear CLR 22 12     53%   21 1023.4 1024.1      
Aug 24 09:53 NE 13 16.09 Clear CLR 21 12     59%     1023.4 1024.1      
Aug 24 08:53 N 11 16.09 Mostly Cloudy BKN075 18 13     70%     1023.4 1024.1      
Aug 24 07:53 NNW 5 16.09 Cloudy OVC075 16 13     83%     1023.4 1024.1      
Aug 24 06:53 Calm 14.48 Cloudy OVC075 14 13     93%     1022.7 1023.5      
Aug 24 05:53 Calm 11.27 Cloudy OVC070 14 14     97%     1022 1022.6      
Aug 24 05:05 NNW 5 4.83 Fog/Mist FEW001 OVC070 15 14     93%     1021.3        
Aug 24 05:01 N 5 1.61 Fog/Mist SCT001 OVC070 15 14     93%     1021.3        
Aug 24 04:53 Calm 0.4 Fog BKN001 OVC070 15 14     93%     1021.3 1021.9      
Aug 24 04:26 Calm 0.4 Fog VV001 14 14     97%     1021.3        
Aug 24 04:19 Calm 1.21 Fog/Mist VV002 14 14     97%     1021.3        
Aug 24 04:17 Calm 2.01 Fog/Mist BKN001 14 14     97%     1021        
Aug 24 04:08 NW 5 4.02 Fog/Mist SCT001 15 14     93%     1021        
Aug 24 04:05 NNW 5 1.61 Fog/Mist VV001 15 14     93%     1021        
Aug 24 03:53 Calm 0.4 Fog VV001 14 14     97%     1021 1021.7      
Aug 24 03:20 Calm 0.4 Fog VV001 15 14     96%     1020.7        
Aug 24 03:13 NW 8 1.21 Fog/Mist VV002 15 14     96%     1020.7        
Aug 24 03:10 WNW 8 2.82 Fog/Mist SCT002 15 14     96%     1020.7        
Aug 24 03:05 WNW 5 4.83 Fog/Mist SCT004 16 14     93%     1020.7        
Aug 24 02:53 Calm 2.41 Fog/Mist SCT006 16 15     96%     1020.7 1021.3      
Aug 24 02:34 W 5 1.21 Fog/Mist VV006 16 14     93%     1020.7        
Aug 24 02:30 WNW 5 2.82 Fog/Mist FEW007 16 14     93%     1020.7        
Aug 24 01:53 ENE 5 12.87 Clear CLR 16 15     93%     1020.7 1021.4      
Aug 24 00:59 E 8 6.44 Fog/Mist SCT003 16 15     93%     1020.7        
Aug 24 00:56 Calm 2.01 Fog/Mist SCT003 16 16     97%     1020.7        
Aug 24 00:53 E 5 1.21 Fog/Mist VV003 16 16     97%     1020.7 1021.5      
Aug 24 00:45 Calm 0.4 Fog VV003 16 15     93%     1020.7        
Aug 24 00:35 ENE 8 1.21 Fog/Mist VV004 16 15     93%     1021        
Aug 24 00:32 E 8 2.82 Fog/Mist FEW003 16 16     97%     1021        
Aug 23 23:53 E 8 9.66 Fog/Mist CLR 17 16     93%     1020.7 1021.4      
Aug 23 22:53 E 5 16.09 Clear CLR 18 16     90%     1020 1020.8      
Aug 23 21:53 Calm 16.09 Mostly Clear FEW048 19 16     84%     1019.3 1020.2      
Aug 23 20:53 Calm 16.09 Mostly Clear FEW044 19 16     79%     1018.6 1019.3      
Aug 23 19:53 Calm 16.09 Clear CLR 21 16     73%     1018 1018.7     0
Aug 23 18:53 Calm 16.09 Clear CLR 22 15     66%   22 1018.3 1018.7      
Aug 23 17:53 NNE 8 16.09 Clear CLR 22 16     68%   22 1018 1018.6      
Aug 23 16:53 WNW 8 16.09 Clear CLR 20 16     78%     1018 1018.5   0  
Aug 23 16:17 WNW 8 16.09 Mostly Cloudy SCT011 BKN060 19 16     84%     1018        
Aug 23 15:53 W 5 16.09 Mostly Cloudy BKN011 19 16     81%     1018 1018.5      
Aug 23 15:20 WNW 13 16.09 Cloudy BKN010 BKN065 OVC110 18 16     87%     1018.6        
Aug 23 14:53 N 5 16.09 Cloudy OVC009 18 16     84%     1018 1018.7 0    
Aug 23 13:53 Calm 6.44 Light Rain and Fog/Mist OVC007 17 15     87%     1018.6 1019.2 0   2
Aug 23 13:40 Calm 6.44 Light Rain and Fog/Mist BKN007 OVC070 17 15     87%     1018.6   0    
Aug 23 13:09 ESE 8 4.02 Rain and Fog/Mist SCT007 BKN055 OVC075 17 14     86%     1018.3   0    
Aug 23 13:02 NE 5 4.02 Light Rain and Fog/Mist SCT005 BKN012 OVC060 17 15     90%     1018.6   0    
Aug 23 12:53 Calm 4.02 Light Rain and Fog/Mist SCT005 BKN050 OVC070 17 15     90%     1018.3 1019 0    
Aug 23 12:50 Calm 4.02 Light Rain and Fog/Mist SCT009 OVC055 17 15     88%     1018.6   0    
Aug 23 12:41 WNW 5 4.83 Light Rain and Fog/Mist SCT008 BKN050 OVC060 17 15     90%     1019   0    
Aug 23 12:29 WNW 9 2.82 Rain and Fog/Mist FEW005 BKN050 OVC065 17 16     93%     1019   0    
Aug 23 12:08 WNW 8 3.22 Rain and Fog/Mist BKN050 OVC070 16 15     93%     1019   0    
Aug 23 12:00 NW 8 2.82 Rain and Fog/Mist SCT048 OVC060 16 15     93%     1019   0    
Aug 23 11:53 NW 8 3.22 Heavy Rain and Fog/Mist BKN048 OVC065 16 15     93%     1019 1019.6 1    
Aug 23 10:53 NNW 15 3.22 Rain and Fog/Mist SCT027 BKN048 OVC060 17 15     90%     1019 1019.5 0 0  
Aug 23 10:46 NNW 11 3.22 Light Rain and Fog/Mist BKN027 BKN049 OVC060 17 15     87%     1019   0    
Aug 23 10:44 NNW 13 8.05 Light Rain and Fog/Mist BKN027 OVC049 17 15     87%     1019   0    
Aug 23 09:53 N 13 8.05 Light Rain SCT010 OVC040 18 14     81%     1018.3 1018.7 0    
Aug 23 09:07 N 17 6.44 Light Rain SCT013 OVC046 19 16     84%     1017.6   0    
Aug 23 09:00 NNE 17 4.02 Light Rain SCT013 OVC046 19 16     84%     1017.6   0    
Aug 23 08:53 NNE 13 4.02 Light Rain and Fog/Mist BKN007 OVC048 19 17     87%     1017.6 1018 0    
Aug 23 08:39 NNE 13 4.02 Light Rain and Fog/Mist BKN007 OVC045 19 18     90%     1017.6   0    
Aug 23 08:16 N 15 11.27 Light Rain FEW008 SCT018 OVC044 19 18     90%     1017.3   0    
Aug 23 07:53 N 13 16.09 Cloudy BKN016 OVC043 19 18     90%     1017.3 1017.9 0   0
Aug 23 07:31 N 13 16.09 Cloudy BKN016 OVC043 20 18     87%     1016.9   0    
Aug 23 07:18 N 15 16.09 Cloudy BKN014 OVC040 20 18     90%     1016.9   0    
Aug 23 06:53 N 13 16.09 Light Rain SCT008 BKN016 OVC036 21 19     90%     1016.3 1016.8 0    
Aug 23 06:34 N 15 16.09 Cloudy BKN009 OVC032 21 19     90%     1016.3   0    
Aug 23 06:14 N 15 16.09 Cloudy BKN011 BKN026 OVC050 21 19     93%     1015.9   0    
Aug 23 06:02 NNW 11 16.09 Light Rain FEW009 BKN026 OVC070 21 19     90%     1015.9   0    
Aug 23 05:53 NNW 9 16.09 Light Rain FEW026 BKN050 BKN070 21 19     90%     1015.6 1016.1 0    
Aug 23 04:53 NNW 9 12.87 Light Rain FEW050 BKN065 OVC110 21 20     93%     1015.2 1015.5 0 0  
Aug 23 03:53 NNW 11 16.09 Cloudy BKN100 OVC110 22 19     87%   22 1014.9 1015.2 0    
Aug 23 02:53 NNW 11 16.09 Mostly Clear FEW060 22 19     87%   22 1014.9 1014.9      
Aug 23 01:53 N 9 16.09 Clear CLR 22 19     84%   23 1014.6 1014.9     0
Aug 23 00:53 N 8 16.09 Mostly Clear FEW120 23 21     87%   23 1014.9 1015      
Aug 22 23:53 NNW 11 16.09 Mostly Cloudy FEW047 BKN090 BKN120 23 20     82%   24 1014.9 1015      
Aug 22 22:53 NNW 8 16.09 Mostly Cloudy SCT065 BKN095 BKN120 24        %     1014.9 1015.1 0 0  
Aug 22 21:53 NE 5 16.09 Cloudy BKN060 OVC075 24        %     1014.6 1014.7      
Aug 22 20:55 NE 5 16.09 Mostly Cloudy BKN080 24        %     1013.6        
Aug 22 20:53 NE 5 16.09 Mostly Cloudy BKN075 24        %     1013.6 1013.7      
Aug 22 19:53 NE 8 16.09 Mostly Cloudy BKN065 24        %     1013.2 1013.5     1
Aug 22 18:53 E 15 16.09 Mostly Cloudy BKN050 23        %     1012.2 1012.5 1    
Aug 22 18:44 E 13 16.09 Mostly Cloudy BKN050 24        %     1012.2   1    
Aug 22 18:36 ENE 11 16.09 Mostly Cloudy BKN050 24        %     1012.2   1    
Aug 22 18:27 NE 9   Clear   23        %     1012.2   1    
Notice The following observation data may not be complete
Aug 22 18:00 SE 21   Thunderstorms and Heavy Rain            %     1012.9   1    
Aug 22 17:50   2.82 Heavy Rain SCT046 BKN065 OVC090 26        %     1012.9   0    
Aug 22 17:35 S 15 16.09 Cloudy SCT055 BKN070 OVC110 31        %     1011.9   0    
Aug 22 16:53 S 15 16.09 Mostly Cloudy BKN060 BKN075 32        %     1011.9 1011.9      
Aug 22 15:53 5 16.09 Partly Cloudy SCT060 33        %     1011.9 1012.2      
Aug 22 14:53 NNW 8 16.09 Clear CLR 33        %     1012.9 1013      
May 15 02:07 S 11 16.09 Cloudy BKN055 OVC065 19 17     90%     1014.6        
May 14 18:53 SSW 11 8.05 Light Rain and Fog/Mist FEW090 OVC110 22 20     87%   23 1014.2 1014.7 0    
May 13 23:01 Calm 8.05 Light Rain and Fog/Mist SCT007 BKN019 OVC110 16 15     96%     1016.9   0    
May 13 03:46 NNE 8 3.22 Rain and Fog/Mist SCT008 BKN029 OVC049 17 17     97%     1018.3   1    
May 13 03:18 NW 13 3.22 Thunderstorms and Rain and Fog/Mist FEW007 BKN031 OVC042 17 17     97%     1018.6   1    
May 12 18:53 N 24 8.05 Light Rain FEW075 BKN090 OVC120 22 17     76%   22   1016.6 0    
May 12 15:53 S 15 16.09 Clear CLR 30 17     46%   30 1013.6 1014.1      
May 12 08:53 NW 5 16.09 Clear CLR 15 11     78%     1019.3 1019.9      
May 12 03:53 NNW 21 16.09 Clear   15 8     64%     1017.3 1018      
May 12 00:53 NW 9 16.09 Mostly Clear FEW075 16 11     70%     1017.6 1018.2      
Jun 11 15:53 W 21 16.09 Clear CLR 33 16     36%   33 1019 1019.2      
Jun 11 12:53 WSW 21 16.09 Clear CLR 31 17     42%   31 1020 1020.2      
Jun 11 03:53 S 11 16.09 Clear CLR 21 16     71%     1018.6 1018.7      
Jun 08 13:53 NE 11 16.09 Mostly Cloudy BKN060 23 8     37%   23 1013.9 1014.7